Time,TemperatureF,DewpointF,PressureIn,WindDirection,WindDirectionDegrees,WindSpeedMPH,WindSpeedGustMPH,Humidity,HourlyPrecipIn,Conditions,Clouds,dailyrainin,SoftwareType,DateUTC
2013-02-18 00:01:00,27.0,27.0,30.06,WSW,248,0.0,0.0,100,0.00,,,0.02,,2013-02-18 08:01:00,
2013-02-18 00:11:00,29.0,29.0,30.06,WSW,248,0.0,0.0,100,0.00,,,0.02,,2013-02-18 08:11:00,
2013-02-18 00:21:00,29.0,29.0,30.06,WSW,248,0.0,0.0,100,0.00,,,0.02,,2013-02-18 08:21:00,
2013-02-18 00:32:00,28.0,28.0,30.06,WSW,248,0.0,0.0,100,0.00,,,0.02,,2013-02-18 08:32:00,
2013-02-18 00:41:00,28.0,28.0,30.06,WSW,248,0.0,0.0,100,0.00,,,0.02,,2013-02-18 08:41:00,
2013-02-18 00:52:00,27.0,27.0,30.06,WSW,248,0.0,0.0,100,0.00,,,0.02,,2013-02-18 08:52:00,
2013-02-18 01:02:00,28.0,28.0,30.06,WSW,248,0.0,0.0,100,0.00,,,0.02,,2013-02-18 09:02:00,
2013-02-18 01:11:00,28.0,28.0,30.06,WSW,248,0.0,0.0,100,0.00,,,0.02,,2013-02-18 09:11:00,
2013-02-18 01:22:00,27.0,27.0,30.07,East,90,0.0,0.0,100,0.00,,,0.02,,2013-02-18 09:22:00,
2013-02-18 01:31:00,27.0,27.0,30.07,NE,45,0.0,0.0,100,0.00,,,0.02,,2013-02-18 09:31:00,
2013-02-18 01:41:00,27.0,27.0,30.07,NE,45,0.0,0.0,100,0.00,,,0.02,,2013-02-18 09:41:00,
2013-02-18 01:52:00,27.0,27.0,30.06,NE,45,0.0,0.0,100,0.00,,,0.02,,2013-02-18 09:52:00,
2013-02-18 02:01:00,27.0,27.0,30.06,NE,45,0.0,0.0,100,0.00,,,0.02,,2013-02-18 10:01:00,
2013-02-18 02:11:00,27.0,27.0,30.06,NE,45,0.0,0.0,100,0.00,,,0.02,,2013-02-18 10:11:00,
2013-02-18 02:21:00,27.0,27.0,30.06,NE,45,0.0,0.0,100,0.00,,,0.02,,2013-02-18 10:21:00,
2013-02-18 02:31:00,27.0,27.0,30.05,NE,45,0.0,0.0,100,0.01,,,0.03,,2013-02-18 10:31:00,
2013-02-18 02:41:00,27.0,27.0,30.05,NE,45,0.0,0.0,100,0.01,,,0.03,,2013-02-18 10:41:00,
2013-02-18 02:52:00,27.0,27.0,30.05,NE,45,0.0,0.0,100,0.01,,,0.03,,2013-02-18 10:52:00,
2013-02-18 03:01:00,27.0,27.0,30.05,NE,45,0.0,0.0,100,0.01,,,0.03,,2013-02-18 11:01:00,
2013-02-18 03:11:00,27.0,27.0,30.05,NE,45,0.0,0.0,100,0.01,,,0.03,,2013-02-18 11:11:00,
2013-02-18 03:21:00,26.0,26.0,30.04,NE,45,0.0,0.0,100,0.01,,,0.03,,2013-02-18 11:21:00,
2013-02-18 03:31:00,25.0,25.0,30.04,East,90,0.0,0.0,100,0.00,,,0.03,,2013-02-18 11:31:00,
2013-02-18 03:41:00,25.0,25.0,30.04,East,90,0.0,0.0,100,0.00,,,0.03,,2013-02-18 11:41:00,
2013-02-18 03:52:00,26.0,26.0,30.04,East,90,0.0,0.0,100,0.00,,,0.03,,2013-02-18 11:52:00,
2013-02-18 04:01:00,26.0,26.0,30.03,East,90,0.0,0.0,100,0.00,,,0.03,,2013-02-18 12:01:00,
2013-02-18 04:11:00,26.0,26.0,30.03,East,90,0.0,0.0,100,0.00,,,0.03,,2013-02-18 12:11:00,
2013-02-18 04:21:00,26.0,26.0,30.03,East,90,0.0,0.0,100,0.00,,,0.03,,2013-02-18 12:21:00,
2013-02-18 04:31:00,27.0,27.0,30.03,East,90,0.0,0.0,100,0.00,,,0.03,,2013-02-18 12:31:00,
2013-02-18 04:41:00,27.0,27.0,30.03,East,90,0.0,0.0,100,0.00,,,0.03,,2013-02-18 12:41:00,
2013-02-18 04:52:00,26.0,26.0,30.03,East,90,0.0,0.0,100,0.00,,,0.03,,2013-02-18 12:52:00,
2013-02-18 05:01:00,27.0,27.0,30.03,East,90,0.0,0.0,100,0.00,,,0.03,,2013-02-18 13:01:00,
2013-02-18 05:11:00,27.0,27.0,30.03,East,90,0.0,0.0,100,0.00,,,0.03,,2013-02-18 13:11:00,
2013-02-18 05:22:00,25.0,25.0,30.02,East,90,0.0,0.0,100,0.00,,,0.03,,2013-02-18 13:22:00,
2013-02-18 05:31:00,25.0,25.0,30.02,East,90,0.0,0.0,100,0.00,,,0.03,,2013-02-18 13:31:00,
2013-02-18 05:41:00,25.0,25.0,30.02,East,90,0.0,0.0,100,0.00,,,0.03,,2013-02-18 13:41:00,
2013-02-18 05:53:00,24.0,24.0,30.02,NE,45,0.0,0.0,100,0.00,,,0.03,,2013-02-18 13:53:00,
2013-02-18 06:01:00,24.0,24.0,30.02,NE,45,0.0,0.0,100,0.00,,,0.03,,2013-02-18 14:01:00,
2013-02-18 06:11:00,24.0,24.0,30.02,NE,45,0.0,0.0,100,0.00,,,0.03,,2013-02-18 14:11:00,
2013-02-18 06:21:00,26.0,26.0,30.01,NE,45,0.0,6.0,100,0.00,,,0.03,,2013-02-18 14:21:00,
2013-02-18 06:31:00,27.0,27.0,30.01,East,90,7.0,7.0,100,0.00,,,0.03,,2013-02-18 14:31:00,
2013-02-18 06:41:00,27.0,27.0,30.01,East,90,7.0,7.0,100,0.00,,,0.03,,2013-02-18 14:41:00,
2013-02-18 06:53:00,24.0,24.0,30.01,East,90,5.0,5.0,100,0.00,,,0.03,,2013-02-18 14:53:00,
2013-02-18 07:01:00,24.0,24.0,30.01,East,90,7.0,9.0,100,0.00,,,0.03,,2013-02-18 15:01:00,
2013-02-18 07:11:00,24.0,24.0,30.01,East,90,7.0,9.0,100,0.00,,,0.03,,2013-02-18 15:11:00,
2013-02-18 07:21:00,25.0,25.0,30.00,East,90,9.0,10.0,100,0.00,,,0.03,,2013-02-18 15:21:00,
2013-02-18 07:31:00,25.0,25.0,30.00,East,90,6.0,6.0,100,0.00,,,0.03,,2013-02-18 15:31:00,
2013-02-18 07:41:00,25.0,25.0,30.00,East,90,6.0,6.0,100,0.00,,,0.03,,2013-02-18 15:41:00,
2013-02-18 07:52:00,26.0,26.0,30.00,East,90,7.0,7.0,100,0.00,,,0.03,,2013-02-18 15:52:00,
2013-02-18 08:01:00,26.0,26.0,29.99,East,90,8.0,8.0,100,0.00,,,0.03,,2013-02-18 16:01:00,
2013-02-18 08:11:00,26.0,26.0,29.99,East,90,8.0,8.0,100,0.00,,,0.03,,2013-02-18 16:11:00,
2013-02-18 08:21:00,28.0,28.0,29.98,East,90,8.0,10.0,100,0.00,,,0.03,,2013-02-18 16:21:00,
2013-02-18 08:31:00,28.0,28.0,29.98,East,90,7.0,9.0,100,0.00,,,0.03,,2013-02-18 16:31:00,
2013-02-18 08:41:00,28.0,28.0,29.98,East,90,7.0,9.0,100,0.00,,,0.03,,2013-02-18 16:41:00,
2013-02-18 08:52:00,30.0,30.0,29.98,East,90,7.0,9.0,100,0.00,,,0.03,,2013-02-18 16:52:00,
2013-02-18 09:02:00,30.0,30.0,29.97,East,90,5.0,6.0,100,0.00,,,0.02,,2013-02-18 17:02:00,
2013-02-18 09:11:00,30.0,30.0,29.97,East,90,5.0,6.0,100,0.00,,,0.02,,2013-02-18 17:11:00,
2013-02-18 09:21:00,32.0,32.0,29.97,East,90,7.0,8.0,100,0.00,,,0.02,,2013-02-18 17:21:00,
2013-02-18 09:31:00,33.0,33.0,29.97,East,90,7.0,10.0,100,0.00,,,0.02,,2013-02-18 17:31:00,
2013-02-18 09:41:00,33.0,33.0,29.97,East,90,7.0,10.0,100,0.00,,,0.02,,2013-02-18 17:41:00,
2013-02-18 09:52:00,34.0,34.0,29.97,East,90,9.0,12.0,100,0.00,,,0.02,,2013-02-18 17:52:00,
2013-02-18 10:01:00,34.0,34.0,29.96,East,90,10.0,14.0,100,0.00,,,0.02,,2013-02-18 18:01:00,
2013-02-18 10:11:00,34.0,34.0,29.96,East,90,10.0,14.0,100,0.00,,,0.02,,2013-02-18 18:11:00,
2013-02-18 10:21:00,34.0,34.0,29.96,East,90,10.0,12.0,100,0.00,,,0.02,,2013-02-18 18:21:00,
2013-02-18 10:31:00,35.0,35.0,29.96,East,90,9.0,12.0,100,0.00,,,0.02,,2013-02-18 18:31:00,
2013-02-18 10:41:00,35.0,35.0,29.96,East,90,9.0,12.0,100,0.00,,,0.02,,2013-02-18 18:41:00,
2013-02-18 10:52:00,35.0,35.0,29.96,East,90,7.0,9.0,100,0.00,,,0.02,,2013-02-18 18:52:00,
2013-02-18 11:21:00,36.0,36.0,29.94,East,90,8.0,10.0,100,0.00,,,0.02,,2013-02-18 19:21:00,
2013-02-18 11:32:00,37.0,37.0,29.94,ESE,113,7.0,12.0,100,0.00,,,0.02,,2013-02-18 19:32:00,
2013-02-18 11:41:00,37.0,37.0,29.94,ESE,113,7.0,12.0,100,0.00,,,0.02,,2013-02-18 19:41:00,
2013-02-18 11:52:00,37.0,37.0,29.93,ESE,113,7.0,9.0,100,0.00,,,0.02,,2013-02-18 19:52:00,
2013-02-18 12:01:00,38.0,38.0,29.93,East,90,3.0,8.0,100,0.00,,,0.02,,2013-02-18 20:01:00,
2013-02-18 12:21:00,38.0,38.0,29.92,ESE,113,5.0,10.0,100,0.00,,,0.02,,2013-02-18 20:21:00,
2013-02-18 12:31:00,38.0,38.0,29.92,SE,135,1.0,6.0,100,0.00,,,0.02,,2013-02-18 20:31:00,
2013-02-18 12:41:00,38.0,38.0,29.92,SE,135,1.0,6.0,100,0.00,,,0.02,,2013-02-18 20:41:00,
2013-02-18 12:52:00,39.0,39.0,29.91,ENE,68,0.0,0.0,100,0.00,,,0.02,,2013-02-18 20:52:00,
2013-02-18 13:01:00,39.0,39.0,29.91,ENE,68,0.0,0.0,100,0.00,,,0.02,,2013-02-18 21:01:00,
2013-02-18 13:21:00,39.0,39.0,29.90,NE,45,1.0,6.0,100,0.00,,,0.02,,2013-02-18 21:21:00,
2013-02-18 13:31:00,39.0,39.0,29.90,ESE,113,1.0,0.0,100,0.00,,,0.02,,2013-02-18 21:31:00,
2013-02-18 13:41:00,39.0,39.0,29.90,ESE,113,1.0,0.0,100,0.00,,,0.02,,2013-02-18 21:41:00,
2013-02-18 13:52:00,39.0,39.0,29.89,SSE,158,1.0,6.0,100,0.00,,,0.02,,2013-02-18 21:52:00,
2013-02-18 14:01:00,40.0,40.0,29.89,ESE,113,0.0,0.0,100,0.01,,,0.03,,2013-02-18 22:01:00,
2013-02-18 14:11:00,39.0,39.0,29.88,SSE,158,9.0,12.0,100,0.01,,,0.03,,2013-02-18 22:11:00,
2013-02-18 14:21:00,39.0,39.0,29.88,SSE,158,9.0,12.0,100,0.01,,,0.03,,2013-02-18 22:21:00,
2013-02-18 14:32:00,39.0,39.0,29.88,South,180,9.0,10.0,100,0.01,,,0.03,,2013-02-18 22:32:00,
2013-02-18 14:41:00,39.0,39.0,29.88,South,180,9.0,10.0,100,0.01,,,0.03,,2013-02-18 22:41:00,
2013-02-18 14:53:00,39.0,39.0,29.88,SSE,158,9.0,10.0,100,0.01,,,0.03,,2013-02-18 22:53:00,
2013-02-18 15:01:00,39.0,39.0,29.87,SSE,158,7.0,8.0,100,0.00,,,0.03,,2013-02-18 23:01:00,
2013-02-18 15:21:00,39.0,39.0,29.86,SSE,158,1.0,6.0,100,0.00,,,0.03,,2013-02-18 23:21:00,
2013-02-18 15:31:00,39.0,39.0,29.86,ENE,68,1.0,1.0,100,0.00,,,0.03,,2013-02-18 23:31:00,
2013-02-18 15:41:00,39.0,39.0,29.86,ENE,68,1.0,1.0,100,0.00,,,0.03,,2013-02-18 23:41:00,
2013-02-18 15:53:00,39.0,39.0,29.85,SE,135,2.0,5.0,100,0.00,,,0.03,,2013-02-18 23:53:00,
2013-02-18 16:01:00,38.0,38.0,29.85,ESE,113,0.0,0.0,100,0.00,,,0.03,,2013-02-19 00:01:00,
2013-02-18 16:21:00,38.0,38.0,29.84,ESE,113,0.0,0.0,100,0.00,,,0.03,,2013-02-19 00:21:00,
2013-02-18 16:32:00,38.0,38.0,29.84,ESE,113,0.0,0.0,100,0.00,,,0.03,,2013-02-19 00:32:00,
2013-02-18 16:41:00,38.0,38.0,29.84,ESE,113,0.0,0.0,100,0.00,,,0.03,,2013-02-19 00:41:00,
2013-02-18 17:02:00,37.0,37.0,29.83,ESE,113,0.0,0.0,100,0.00,,,0.03,,2013-02-19 01:02:00,
2013-02-18 17:21:00,36.0,36.0,29.83,ESE,113,0.0,0.0,100,0.00,,,0.03,,2013-02-19 01:21:00,
2013-02-18 17:31:00,35.0,35.0,29.83,ESE,113,0.0,0.0,100,0.00,,,0.03,,2013-02-19 01:31:00,
2013-02-18 17:41:00,35.0,35.0,29.83,ESE,113,0.0,0.0,100,0.00,,,0.03,,2013-02-19 01:41:00,
2013-02-18 17:52:00,36.0,36.0,29.82,ESE,113,0.0,0.0,100,0.00,,,0.03,,2013-02-19 01:52:00,
2013-02-18 18:01:00,37.0,37.0,29.81,ENE,68,1.0,6.0,100,0.00,,,0.03,,2013-02-19 02:01:00,
2013-02-18 18:21:00,36.0,36.0,29.82,ENE,68,0.0,0.0,100,0.00,,,0.03,,2013-02-19 02:21:00,
2013-02-18 18:32:00,36.0,36.0,29.81,East,90,1.0,6.0,100,0.00,,,0.03,,2013-02-19 02:32:00,
2013-02-18 18:41:00,36.0,36.0,29.81,East,90,1.0,6.0,100,0.00,,,0.03,,2013-02-19 02:41:00,
2013-02-18 18:52:00,36.0,36.0,29.81,East,90,0.0,0.0,100,0.00,,,0.03,,2013-02-19 02:52:00,
2013-02-18 19:01:00,36.0,36.0,29.81,East,90,0.0,0.0,100,0.00,,,0.03,,2013-02-19 03:01:00,
2013-02-18 19:11:00,36.0,36.0,29.80,East,90,0.0,0.0,100,0.00,,,0.03,,2013-02-19 03:11:00,
2013-02-18 19:21:00,36.0,36.0,29.80,East,90,0.0,0.0,100,0.00,,,0.03,,2013-02-19 03:21:00,
2013-02-18 19:31:00,34.0,34.0,29.80,East,90,0.0,0.0,100,0.00,,,0.03,,2013-02-19 03:31:00,
2013-02-18 19:42:00,34.0,34.0,29.80,East,90,0.0,0.0,100,0.00,,,0.03,,2013-02-19 03:42:00,
2013-02-18 19:51:00,34.0,34.0,29.80,East,90,0.0,0.0,100,0.00,,,0.03,,2013-02-19 03:51:00,
2013-02-18 20:01:00,34.0,34.0,29.79,East,90,0.0,0.0,100,0.00,,,0.03,,2013-02-19 04:01:00,
2013-02-18 20:31:00,34.0,34.0,29.79,East,90,6.0,6.0,100,0.00,,,0.03,,2013-02-19 04:31:00,
2013-02-18 20:42:00,34.0,34.0,29.79,East,90,6.0,6.0,100,0.00,,,0.03,,2013-02-19 04:42:00,
2013-02-18 20:51:00,34.0,34.0,29.79,ENE,68,0.0,0.0,100,0.00,,,0.03,,2013-02-19 04:51:00,
2013-02-18 21:01:00,34.0,34.0,29.78,ENE,68,0.0,0.0,100,0.00,,,0.03,,2013-02-19 05:01:00,
2013-02-18 21:12:00,34.0,34.0,29.78,ENE,68,0.0,0.0,100,0.00,,,0.03,,2013-02-19 05:12:00,
2013-02-18 21:22:00,34.0,34.0,29.78,ENE,68,0.0,0.0,100,0.00,,,0.03,,2013-02-19 05:22:00,
2013-02-18 21:31:00,33.0,33.0,29.78,ENE,68,0.0,0.0,100,0.00,,,0.02,,2013-02-19 05:31:00,
2013-02-18 21:42:00,33.0,33.0,29.78,ENE,68,0.0,0.0,100,0.00,,,0.02,,2013-02-19 05:42:00,
2013-02-18 21:52:00,33.0,33.0,29.77,ENE,68,0.0,0.0,100,0.00,,,0.02,,2013-02-19 05:52:00,
2013-02-18 22:02:00,33.0,33.0,29.77,ENE,68,0.0,0.0,100,0.00,,,0.02,,2013-02-19 06:02:00,
2013-02-18 22:11:00,33.0,33.0,29.77,ENE,68,0.0,0.0,100,0.00,,,0.02,,2013-02-19 06:11:00,
2013-02-18 22:21:00,33.0,33.0,29.77,South,180,0.0,0.0,100,0.00,,,0.02,,2013-02-19 06:21:00,
2013-02-18 22:32:00,33.0,33.0,29.77,South,180,0.0,0.0,100,0.00,,,0.02,,2013-02-19 06:32:00,
2013-02-18 22:41:00,33.0,33.0,29.77,South,180,0.0,0.0,100,0.00,,,0.02,,2013-02-19 06:41:00,
2013-02-18 22:52:00,33.0,33.0,29.77,South,180,0.0,0.0,100,0.00,,,0.02,,2013-02-19 06:52:00,
2013-02-18 23:01:00,34.0,34.0,29.77,South,180,0.0,0.0,100,0.00,,,0.02,,2013-02-19 07:01:00,
2013-02-18 23:21:00,34.0,34.0,29.77,South,180,0.0,0.0,100,0.00,,,0.02,,2013-02-19 07:21:00,
2013-02-18 23:32:00,33.0,33.0,29.76,South,180,0.0,0.0,100,0.00,,,0.02,,2013-02-19 07:32:00,
2013-02-18 23:42:00,33.0,33.0,29.76,South,180,0.0,0.0,100,0.00,,,0.02,,2013-02-19 07:42:00,
2013-02-18 23:51:00,32.0,32.0,29.76,South,180,0.0,0.0,100,0.00,,,0.02,,2013-02-19 07:51:00,